BOV709 SAEZ-SLVR

Flight info

Callsign BOV709
Flight time 2h 44m
Altitude 40000
Route BIVAM UN775 PILCO UM784 BOLET UL404 KABOM
Aircraft A332/H-SDE3GHIJ2J3J5M1RVWXY/LB2D1

Departure

Time 2026-04-21 13:30
Airport Ezeiza International Airport - Ministro Pistarini (SAEZ)

Arrival

Time 2026-04-21 16:15
Airport Viru Viru International Airport (SLVR)
Time Latitude Longitude Altitude Speed Heading
2026-04-21 13:15 -34.81608 -58.53979 84 ft 0 kts 321°
2026-04-21 13:23 -34.81608 -58.53978 79 ft 1 kts 321°
2026-04-21 13:24 -34.81627 -58.53958 84 ft 4 kts 315°
2026-04-21 13:24 -34.81646 -58.53935 84 ft 4 kts 314°
2026-04-21 13:24 -34.81663 -58.53912 84 ft 0 kts 308°
2026-04-21 13:24 -34.81669 -58.53903 85 ft 3 kts 308°
2026-04-21 13:25 -34.81682 -58.53882 85 ft 3 kts 304°
2026-04-21 13:25 -34.81694 -58.53857 85 ft 3 kts 275°
2026-04-21 13:25 -34.81690 -58.53838 84 ft 0 kts 227°
2026-04-21 13:26 -34.81691 -58.53840 84 ft 2 kts 227°
2026-04-21 13:26 -34.81719 -58.53887 85 ft 12 kts 238°
2026-04-21 13:26 -34.81768 -58.53985 82 ft 18 kts 238°
2026-04-21 13:27 -34.81788 -58.54138 82 ft 20 kts 278°
2026-04-21 13:27 -34.81767 -58.54331 83 ft 25 kts 279°
2026-04-21 13:27 -34.81755 -58.54542 82 ft 25 kts 262°
2026-04-21 13:27 -34.81774 -58.54741 81 ft 22 kts 272°
2026-04-21 13:28 -34.81751 -58.54932 84 ft 24 kts 282°
2026-04-21 13:28 -34.81712 -58.55131 82 ft 25 kts 283°
2026-04-21 13:28 -34.81721 -58.55309 81 ft 18 kts 228°
2026-04-21 13:28 -34.81817 -58.55328 83 ft 12 kts 161°
2026-04-21 13:29 -34.81888 -58.55291 84 ft 10 kts 159°
2026-04-21 13:29 -34.81923 -58.55242 84 ft 6 kts 102°
2026-04-21 13:29 -34.81941 -58.55139 87 ft 30 kts 102°
2026-04-21 13:29 -34.82039 -58.54593 90 ft 101 kts 102°
2026-04-21 13:30 -34.82213 -58.53608 106 ft 156 kts 103°
2026-04-21 13:30 -34.82323 -58.52940 1048 ft 89 kts 98°
2026-04-21 13:30 -34.82447 -58.51966 1327 ft 145 kts 98°
2026-04-21 13:31 -34.82981 -58.50670 1499 ft 195 kts 122°
2026-04-21 13:31 -34.83887 -58.49246 1924 ft 230 kts 127°
2026-04-21 13:31 -34.84941 -58.47641 2483 ft 252 kts 126°
2026-04-21 13:31 -34.85975 -58.45879 3365 ft 258 kts 120°
2026-04-21 13:32 -34.86881 -58.43995 4227 ft 265 kts 118°
2026-04-21 13:32 -34.87791 -58.42008 5150 ft 272 kts 117°
2026-04-21 13:32 -34.88750 -58.39987 6063 ft 279 kts 123°
2026-04-21 13:32 -34.90139 -58.38322 6967 ft 286 kts 149°
2026-04-21 13:33 -34.92038 -58.37628 7882 ft 289 kts 181°
2026-04-21 13:33 -34.93973 -58.38165 8838 ft 287 kts 211°
2026-04-21 13:33 -34.95431 -58.39755 9855 ft 281 kts 240°
2026-04-21 13:33 -34.96302 -58.41895 10627 ft 290 kts 247°
2026-04-21 13:34 -34.97239 -58.44177 11030 ft 312 kts 248°
2026-04-21 13:34 -34.98083 -58.46677 11632 ft 324 kts 253°
2026-04-21 13:34 -34.98691 -58.49343 12464 ft 328 kts 261°
2026-04-21 13:34 -34.98993 -58.52100 13367 ft 329 kts 271°
2026-04-21 13:35 -34.98638 -58.54838 14242 ft 329 kts 292°
2026-04-21 13:35 -34.97374 -58.57157 15026 ft 334 kts 315°
2026-04-21 13:35 -34.95374 -58.58628 15822 ft 344 kts 338°
2026-04-21 13:35 -34.92969 -58.58980 16593 ft 358 kts
2026-04-21 13:36 -34.90524 -58.58164 17351 ft 372 kts 18°
2026-04-21 13:36 -34.88150 -58.56842 18096 ft 378 kts 20°
2026-04-21 13:36 -34.85759 -58.55477 18776 ft 382 kts 19°
2026-04-21 13:36 -34.83285 -58.54311 19457 ft 381 kts 11°
2026-04-21 13:37 -34.80696 -58.53747 20132 ft 377 kts 359°
2026-04-21 13:37 -34.78069 -58.53706 20798 ft 378 kts 354°
2026-04-21 13:37 -34.75460 -58.53808 21431 ft 381 kts 353°
2026-04-21 13:37 -34.72798 -58.53936 22001 ft 386 kts 353°
2026-04-21 13:38 -34.70101 -58.54064 22585 ft 390 kts 353°
2026-04-21 13:38 -34.67370 -58.54190 23191 ft 394 kts 353°
2026-04-21 13:38 -34.64622 -58.54314 23755 ft 397 kts 353°
2026-04-21 13:38 -34.61843 -58.54438 24244 ft 401 kts 353°
2026-04-21 13:39 -34.59040 -58.54562 24725 ft 404 kts 353°
2026-04-21 13:39 -34.56223 -58.54686 25219 ft 407 kts 353°
2026-04-21 13:39 -34.53387 -58.54810 25676 ft 409 kts 353°
2026-04-21 13:39 -34.50532 -58.54935 26155 ft 412 kts 353°
2026-04-21 13:40 -34.47653 -58.55061 26625 ft 415 kts 353°
2026-04-21 13:40 -34.44755 -58.55188 27094 ft 418 kts 353°
2026-04-21 13:40 -34.41838 -58.55315 27562 ft 421 kts 353°
2026-04-21 13:40 -34.38943 -58.55442 28008 ft 424 kts 353°
2026-04-21 13:41 -34.35986 -58.55571 28463 ft 427 kts 353°
2026-04-21 13:41 -34.33028 -58.55892 28930 ft 425 kts 346°
2026-04-21 13:41 -34.30163 -58.56717 29419 ft 421 kts 336°
2026-04-21 13:41 -34.27493 -58.58101 29955 ft 416 kts 326°
2026-04-21 13:42 -34.25107 -58.60033 30349 ft 412 kts 316°
2026-04-21 13:42 -34.23016 -58.62387 30809 ft 410 kts 311°
2026-04-21 13:42 -34.21028 -58.64846 31272 ft 409 kts 310°
2026-04-21 13:42 -34.19051 -58.67324 31755 ft 409 kts 310°
2026-04-21 13:43 -34.17077 -58.69793 32273 ft 407 kts 310°
2026-04-21 13:43 -34.15119 -58.72233 32980 ft 401 kts 309°
2026-04-21 13:43 -34.13193 -58.74627 33712 ft 393 kts 309°
2026-04-21 13:43 -34.11300 -58.76977 34392 ft 388 kts 309°
2026-04-21 13:44 -34.09426 -58.79304 34817 ft 386 kts 308°
2026-04-21 13:44 -34.07550 -58.81634 35159 ft 387 kts 308°
2026-04-21 13:44 -34.05677 -58.83957 35519 ft 387 kts 308°
2026-04-21 13:44 -34.03796 -58.86285 35916 ft 386 kts 308°
2026-04-21 13:45 -34.01921 -58.88605 36297 ft 385 kts 308°
2026-04-21 13:45 -34.00034 -58.90900 36686 ft 386 kts 310°
2026-04-21 13:45 -33.97993 -58.92962 37042 ft 392 kts 317°
2026-04-21 13:45 -33.95646 -58.94691 37357 ft 400 kts 324°
2026-04-21 13:46 -33.93039 -58.95977 37697 ft 409 kts 331°
2026-04-21 13:46 -33.90315 -58.97025 38053 ft 411 kts 333°
2026-04-21 13:46 -33.87566 -58.97979 38409 ft 412 kts 334°
2026-04-21 13:46 -33.84800 -58.98894 38742 ft 412 kts 334°
2026-04-21 13:47 -33.82038 -58.99798 39012 ft 411 kts 334°
2026-04-21 13:47 -33.79275 -59.00710 39264 ft 411 kts 334°
2026-04-21 13:47 -33.76520 -59.01630 39467 ft 411 kts 334°
2026-04-21 13:47 -33.73764 -59.02562 39679 ft 412 kts 334°
2026-04-21 13:48 -33.71005 -59.03502 39916 ft 412 kts 334°
2026-04-21 13:48 -33.68240 -59.04448 40035 ft 415 kts 334°
2026-04-21 13:48 -33.62632 -59.06374 40048 ft 421 kts 334°
2026-04-21 13:49 -33.57001 -59.08291 40047 ft 420 kts 334°
2026-04-21 13:49 -33.51371 -59.10203 40050 ft 420 kts 334°
2026-04-21 13:50 -33.45790 -59.12099 40048 ft 420 kts 334°
2026-04-21 13:50 -33.40169 -59.14008 40051 ft 420 kts 334°
2026-04-21 13:51 -33.34542 -59.15917 40023 ft 420 kts 334°
2026-04-21 13:51 -33.28918 -59.17822 40053 ft 421 kts 334°
2026-04-21 13:52 -33.23282 -59.19728 40056 ft 421 kts 334°
2026-04-21 13:52 -33.17645 -59.21631 40056 ft 421 kts 334°
2026-04-21 13:53 -33.12012 -59.23531 40045 ft 421 kts 334°
2026-04-21 13:53 -33.06377 -59.25430 40055 ft 421 kts 334°
2026-04-21 13:54 -33.00731 -59.27329 40057 ft 421 kts 334°
2026-04-21 13:54 -32.95126 -59.29212 40058 ft 421 kts 334°
2026-04-21 13:55 -32.89481 -59.31105 40051 ft 421 kts 334°
2026-04-21 13:55 -32.83846 -59.32993 40057 ft 421 kts 334°
2026-04-21 13:56 -32.78211 -59.34879 40058 ft 420 kts 334°
2026-04-21 13:56 -32.72579 -59.36761 40059 ft 420 kts 334°
2026-04-21 13:57 -32.66949 -59.38641 40059 ft 421 kts 334°
2026-04-21 13:57 -32.61337 -59.40512 40059 ft 421 kts 334°
2026-04-21 13:58 -32.55689 -59.42392 40059 ft 421 kts 334°
2026-04-21 13:58 -32.50050 -59.44266 40058 ft 421 kts 334°
2026-04-21 13:59 -32.44410 -59.46137 40062 ft 421 kts 334°
2026-04-21 13:59 -32.38748 -59.47968 40062 ft 422 kts 334°
2026-04-21 14:00 -32.33080 -59.49773 40063 ft 421 kts 334°
2026-04-21 14:00 -32.27456 -59.51562 40048 ft 421 kts 334°
2026-04-21 14:01 -32.21790 -59.53367 40061 ft 422 kts 334°
2026-04-21 14:01 -32.16127 -59.55171 40058 ft 422 kts 334°
2026-04-21 14:02 -32.11372 -59.56683 40065 ft 422 kts 334°
2026-04-21 14:03 -32.02903 -59.59374 40063 ft 422 kts 334°
2026-04-21 14:03 -31.97225 -59.61175 40068 ft 422 kts 334°
2026-04-21 14:04 -31.91543 -59.62974 40064 ft 422 kts 334°
2026-04-21 14:04 -31.85862 -59.64771 40063 ft 423 kts 334°
2026-04-21 14:05 -31.80180 -59.66566 40064 ft 423 kts 334°
2026-04-21 14:05 -31.74494 -59.68361 40064 ft 423 kts 334°
2026-04-21 14:06 -31.68844 -59.70141 40065 ft 423 kts 334°
2026-04-21 14:06 -31.63151 -59.71932 40029 ft 423 kts 334°
2026-04-21 14:07 -31.57449 -59.73725 40062 ft 424 kts 334°
2026-04-21 14:07 -31.51746 -59.75516 40061 ft 424 kts 334°
2026-04-21 14:08 -31.46042 -59.77303 40065 ft 424 kts 334°
2026-04-21 14:08 -31.40365 -59.79080 40041 ft 424 kts 335°
2026-04-21 14:09 -31.34663 -59.80863 40064 ft 424 kts 335°
2026-04-21 14:09 -31.28960 -59.82644 40064 ft 424 kts 335°
2026-04-21 14:10 -31.23258 -59.84423 40069 ft 424 kts 335°
2026-04-21 14:10 -31.17555 -59.86201 40048 ft 424 kts 335°
2026-04-21 14:11 -31.11844 -59.87978 40069 ft 424 kts 335°
2026-04-21 14:11 -31.06141 -59.89750 40070 ft 424 kts 335°
2026-04-21 14:12 -31.00445 -59.91525 40062 ft 423 kts 334°
2026-04-21 14:12 -30.94762 -59.93318 40042 ft 423 kts 334°
2026-04-21 14:13 -30.89119 -59.95101 40064 ft 423 kts 334°
2026-04-21 14:13 -30.83430 -59.96895 40063 ft 423 kts 334°
2026-04-21 14:14 -30.77750 -59.98682 40060 ft 423 kts 334°
2026-04-21 14:14 -30.72069 -60.00466 40047 ft 423 kts 334°
2026-04-21 14:15 -30.66386 -60.02250 40064 ft 423 kts 334°
2026-04-21 14:15 -30.60737 -60.04020 40065 ft 423 kts 334°
2026-04-21 14:16 -30.55052 -60.05799 40064 ft 423 kts 334°
2026-04-21 14:16 -30.49366 -60.07576 40050 ft 423 kts 334°
2026-04-21 14:17 -30.43676 -60.09353 40063 ft 423 kts 334°
2026-04-21 14:17 -30.37985 -60.11128 40069 ft 423 kts 334°
2026-04-21 14:18 -30.32297 -60.12900 40064 ft 423 kts 334°
2026-04-21 14:18 -30.26605 -60.14670 40063 ft 424 kts 334°
2026-04-21 14:19 -30.20906 -60.16442 40061 ft 424 kts 334°
2026-04-21 14:19 -30.15212 -60.18210 40068 ft 423 kts 334°
2026-04-21 14:20 -30.09564 -60.19961 40068 ft 423 kts 334°
2026-04-21 14:20 -30.03883 -60.21721 40054 ft 422 kts 334°
2026-04-21 14:21 -29.98204 -60.23479 40068 ft 423 kts 334°
2026-04-21 14:21 -29.92517 -60.25238 40068 ft 423 kts 334°
2026-04-21 14:22 -29.86838 -60.26991 40070 ft 422 kts 334°
2026-04-21 14:22 -29.81155 -60.28743 40044 ft 422 kts 334°
2026-04-21 14:23 -29.75480 -60.30491 40067 ft 422 kts 334°
2026-04-21 14:23 -29.69799 -60.32239 40066 ft 422 kts 334°
2026-04-21 14:24 -29.64122 -60.33983 40071 ft 422 kts 334°
2026-04-21 14:24 -29.58479 -60.35715 40039 ft 422 kts 334°
2026-04-21 14:25 -29.52807 -60.37455 40070 ft 422 kts 334°
2026-04-21 14:25 -29.47130 -60.39193 40069 ft 422 kts 334°
2026-04-21 14:26 -29.41450 -60.40930 40072 ft 422 kts 334°
2026-04-21 14:26 -29.35774 -60.42663 40071 ft 422 kts 334°
2026-04-21 14:27 -29.30088 -60.44398 40067 ft 422 kts 335°
2026-04-21 14:27 -29.24438 -60.46120 40080 ft 423 kts 335°
2026-04-21 14:28 -29.18754 -60.47848 40068 ft 422 kts 335°
2026-04-21 14:28 -29.13082 -60.49572 40068 ft 421 kts 335°
2026-04-21 14:29 -29.07412 -60.51294 40061 ft 422 kts 335°
2026-04-21 14:29 -29.01739 -60.53016 40069 ft 422 kts 335°
2026-04-21 14:30 -28.96090 -60.54727 40065 ft 422 kts 335°
2026-04-21 14:30 -28.90411 -60.56445 40066 ft 422 kts 335°
2026-04-21 14:31 -28.84730 -60.58162 40060 ft 422 kts 335°
2026-04-21 14:31 -28.79048 -60.59879 40060 ft 423 kts 335°
2026-04-21 14:32 -28.73357 -60.61585 40059 ft 423 kts 335°
2026-04-21 14:32 -28.67660 -60.63281 40063 ft 423 kts 335°
2026-04-21 14:33 -28.61961 -60.64976 40064 ft 423 kts 336°
2026-04-21 14:33 -28.56255 -60.66673 40067 ft 424 kts 336°
2026-04-21 14:34 -28.50577 -60.68359 40064 ft 424 kts 336°
2026-04-21 14:34 -28.44867 -60.70053 40064 ft 424 kts 336°
2026-04-21 14:35 -28.39153 -60.71746 40043 ft 424 kts 336°
2026-04-21 14:35 -28.33432 -60.73440 40061 ft 425 kts 336°
2026-04-21 14:36 -28.27702 -60.75135 40068 ft 425 kts 336°
2026-04-21 14:36 -28.21975 -60.76825 40061 ft 425 kts 336°
2026-04-21 14:37 -28.16252 -60.78514 40061 ft 425 kts 336°
2026-04-21 14:37 -28.10571 -60.80188 40061 ft 425 kts 336°
2026-04-21 14:38 -28.04840 -60.81876 40062 ft 425 kts 336°
2026-04-21 14:38 -27.99111 -60.83560 40061 ft 425 kts 336°
2026-04-21 14:39 -27.93387 -60.85241 40058 ft 425 kts 336°
2026-04-21 14:39 -27.87653 -60.86924 40064 ft 425 kts 336°
2026-04-21 14:40 -27.81916 -60.88606 40062 ft 425 kts 336°
2026-04-21 14:40 -27.76182 -60.90284 40062 ft 425 kts 336°
2026-04-21 14:41 -27.70456 -60.91959 40062 ft 425 kts 336°
2026-04-21 14:41 -27.64761 -60.93624 40057 ft 426 kts 336°
2026-04-21 14:42 -27.59014 -60.95304 40061 ft 426 kts 336°
2026-04-21 14:42 -27.53284 -60.97034 40061 ft 426 kts 336°
2026-04-21 14:43 -27.47570 -60.98794 40068 ft 426 kts 336°
2026-04-21 14:43 -27.41853 -61.00552 40048 ft 426 kts 336°
2026-04-21 14:44 -27.36123 -61.02308 40068 ft 427 kts 336°
2026-04-21 14:44 -27.30392 -61.04059 40063 ft 427 kts 336°
2026-04-21 14:45 -27.24651 -61.05785 40067 ft 427 kts 336°
2026-04-21 14:45 -27.18951 -61.07451 40064 ft 426 kts 336°
2026-04-21 14:46 -27.13198 -61.09125 40066 ft 427 kts 337°
2026-04-21 14:46 -27.07443 -61.10803 40069 ft 427 kts 337°
2026-04-21 14:47 -27.01688 -61.12481 40066 ft 427 kts 337°
2026-04-21 14:47 -26.95935 -61.14157 40065 ft 427 kts 337°
2026-04-21 14:48 -26.90179 -61.15834 40057 ft 427 kts 337°
2026-04-21 14:48 -26.84458 -61.17498 40065 ft 427 kts 337°
2026-04-21 14:49 -26.78699 -61.19171 40064 ft 427 kts 337°
2026-04-21 14:49 -26.72930 -61.20845 40064 ft 427 kts 337°
2026-04-21 14:50 -26.68143 -61.22234 40067 ft 427 kts 337°
2026-04-21 14:50 -26.61452 -61.24172 40071 ft 427 kts 338°
2026-04-21 14:51 -26.55697 -61.25837 40068 ft 427 kts 338°
2026-04-21 14:51 -26.49903 -61.27512 40065 ft 427 kts 338°
2026-04-21 14:52 -26.45114 -61.28895 40064 ft 427 kts 338°
2026-04-21 14:52 -26.38413 -61.30828 40071 ft 428 kts 338°
2026-04-21 14:53 -26.32631 -61.32495 40069 ft 429 kts 338°
2026-04-21 14:53 -26.27781 -61.33891 40081 ft 429 kts 338°
2026-04-21 14:54 -26.22004 -61.35551 40074 ft 427 kts 338°
2026-04-21 14:54 -26.16291 -61.37192 40056 ft 427 kts 338°
2026-04-21 14:55 -26.10532 -61.38847 40071 ft 428 kts 338°
2026-04-21 14:55 -26.04756 -61.40504 40069 ft 428 kts 338°
2026-04-21 14:56 -25.98977 -61.42159 40071 ft 428 kts 338°
2026-04-21 14:56 -25.93204 -61.43811 40068 ft 428 kts 338°
2026-04-21 14:57 -25.87460 -61.45453 40074 ft 428 kts 338°
2026-04-21 14:57 -25.81684 -61.47103 40071 ft 429 kts 338°
2026-04-21 14:58 -25.75896 -61.48754 40070 ft 429 kts 338°
2026-04-21 14:58 -25.70126 -61.50399 40069 ft 429 kts 338°
2026-04-21 14:59 -25.64341 -61.52046 40062 ft 429 kts 339°
2026-04-21 14:59 -25.58578 -61.53686 40069 ft 432 kts 339°
2026-04-21 15:00 -25.52756 -61.55341 40067 ft 432 kts 339°
2026-04-21 15:00 -25.46927 -61.56994 40070 ft 432 kts 339°
2026-04-21 15:01 -25.41108 -61.58644 40072 ft 432 kts 339°
2026-04-21 15:01 -25.35276 -61.60296 40065 ft 432 kts 339°
2026-04-21 15:02 -25.29456 -61.61944 40064 ft 432 kts 339°
2026-04-21 15:02 -25.23632 -61.63591 40067 ft 432 kts 339°
2026-04-21 15:03 -25.17811 -61.65235 40064 ft 432 kts 339°
2026-04-21 15:03 -25.12021 -61.66869 40058 ft 432 kts 339°
2026-04-21 15:04 -25.06171 -61.68520 40056 ft 434 kts 339°
2026-04-21 15:04 -25.00318 -61.70168 40059 ft 434 kts 339°
2026-04-21 15:05 -24.94459 -61.71816 40058 ft 434 kts 339°
2026-04-21 15:05 -24.85720 -61.74272 40066 ft 434 kts 340°
2026-04-21 15:06 -24.79863 -61.75916 40062 ft 435 kts 340°
2026-04-21 15:06 -24.74001 -61.77560 40063 ft 435 kts 340°
2026-04-21 15:07 -24.68142 -61.79202 40050 ft 435 kts 340°
2026-04-21 15:07 -24.62280 -61.80843 40062 ft 434 kts 340°
2026-04-21 15:08 -24.56422 -61.82482 40055 ft 435 kts 340°
2026-04-21 15:08 -24.50558 -61.84121 40056 ft 435 kts 340°
2026-04-21 15:09 -24.44691 -61.85758 40050 ft 435 kts 340°
2026-04-21 15:09 -24.38831 -61.87392 40049 ft 435 kts 340°
2026-04-21 15:10 -24.32967 -61.89026 40041 ft 435 kts 341°
2026-04-21 15:10 -24.27142 -61.90648 40048 ft 435 kts 341°
2026-04-21 15:11 -24.21273 -61.92280 40050 ft 435 kts 341°
2026-04-21 15:11 -24.15409 -61.93909 40045 ft 434 kts 340°
2026-04-21 15:12 -24.09563 -61.95531 40041 ft 434 kts 340°
2026-04-21 15:12 -24.03712 -61.97153 40042 ft 434 kts 341°
2026-04-21 15:13 -23.97854 -61.98775 40037 ft 434 kts 341°
2026-04-21 15:13 -23.91993 -62.00396 40039 ft 434 kts 341°
2026-04-21 15:14 -23.86133 -62.02015 40030 ft 434 kts 341°
2026-04-21 15:14 -23.80317 -62.03621 40030 ft 434 kts 341°
2026-04-21 15:15 -23.74456 -62.05238 40032 ft 435 kts 341°
2026-04-21 15:15 -23.68585 -62.06856 40031 ft 435 kts 341°
2026-04-21 15:16 -23.62718 -62.08471 40025 ft 435 kts 341°
2026-04-21 15:16 -23.56852 -62.10084 40030 ft 435 kts 341°
2026-04-21 15:17 -23.50986 -62.11696 40026 ft 435 kts 342°
2026-04-21 15:17 -23.45114 -62.13308 40026 ft 435 kts 342°
2026-04-21 15:18 -23.39238 -62.14920 40023 ft 435 kts 342°
2026-04-21 15:18 -23.33374 -62.16527 40017 ft 435 kts 342°
2026-04-21 15:19 -23.27544 -62.18124 40017 ft 435 kts 342°
2026-04-21 15:19 -23.21680 -62.19728 40020 ft 434 kts 342°
2026-04-21 15:20 -23.15822 -62.21329 40020 ft 434 kts 342°
2026-04-21 15:20 -23.09957 -62.22930 40020 ft 434 kts 342°
2026-04-21 15:21 -23.04101 -62.24528 40015 ft 434 kts 342°
2026-04-21 15:21 -22.98249 -62.26123 40013 ft 434 kts 342°
2026-04-21 15:22 -22.92390 -62.27719 40015 ft 434 kts 342°
2026-04-21 15:22 -22.86518 -62.29317 40015 ft 434 kts 342°
2026-04-21 15:23 -22.80657 -62.30910 40015 ft 434 kts 342°
2026-04-21 15:23 -22.74828 -62.32493 40010 ft 434 kts 342°
2026-04-21 15:24 -22.68960 -62.34085 40008 ft 434 kts 342°
2026-04-21 15:24 -22.63102 -62.35673 40010 ft 434 kts 342°
2026-04-21 15:25 -22.57238 -62.37262 40010 ft 434 kts 342°
2026-04-21 15:25 -22.51378 -62.38848 40009 ft 434 kts 342°
2026-04-21 15:26 -22.45512 -62.40435 39999 ft 435 kts 343°
2026-04-21 15:26 -22.39746 -62.42353 40009 ft 432 kts 333°
2026-04-21 15:27 -22.34336 -62.45146 40007 ft 431 kts 331°
2026-04-21 15:27 -22.29006 -62.48110 40007 ft 431 kts 330°
2026-04-21 15:28 -22.23709 -62.51085 40004 ft 431 kts 330°
2026-04-21 15:28 -22.18388 -62.54056 40005 ft 431 kts 330°
2026-04-21 15:29 -22.13062 -62.57011 40007 ft 430 kts 330°
2026-04-21 15:29 -22.07735 -62.59961 40006 ft 430 kts 330°
2026-04-21 15:30 -22.02410 -62.62907 40008 ft 430 kts 330°
2026-04-21 15:30 -21.97077 -62.65856 40009 ft 430 kts 330°
2026-04-21 15:31 -21.91753 -62.68798 40003 ft 430 kts 331°
2026-04-21 15:31 -21.86459 -62.71721 40009 ft 430 kts 331°
2026-04-21 15:32 -21.81128 -62.74661 40005 ft 430 kts 331°
2026-04-21 15:32 -21.75798 -62.77599 40006 ft 430 kts 331°
2026-04-21 15:33 -21.70466 -62.80535 40007 ft 430 kts 331°
2026-04-21 15:33 -21.65126 -62.83473 40011 ft 431 kts 331°
2026-04-21 15:34 -21.59790 -62.86407 40004 ft 430 kts 331°
2026-04-21 15:34 -21.54494 -62.89315 40013 ft 430 kts 331°
2026-04-21 15:35 -21.49163 -62.92241 40013 ft 430 kts 331°
2026-04-21 15:35 -21.43831 -62.95165 40008 ft 430 kts 331°
2026-04-21 15:36 -21.38505 -62.98084 40009 ft 430 kts 331°
2026-04-21 15:36 -21.33121 -63.00898 40015 ft 432 kts 337°
2026-04-21 15:37 -21.27253 -63.02379 40017 ft 437 kts 352°
2026-04-21 15:37 -21.21169 -63.02762 40015 ft 438 kts 355°
2026-04-21 15:38 -21.15066 -63.02930 40018 ft 439 kts 355°
2026-04-21 15:38 -21.09001 -63.03088 40014 ft 439 kts 355°
2026-04-21 15:39 -21.02884 -63.03277 40018 ft 440 kts 355°
2026-04-21 15:39 -20.96764 -63.03483 40017 ft 440 kts 355°
2026-04-21 15:40 -20.90644 -63.03692 40021 ft 440 kts 355°
2026-04-21 15:40 -20.84522 -63.03901 40022 ft 440 kts 355°
2026-04-21 15:41 -20.78390 -63.04109 40019 ft 441 kts 355°
2026-04-21 15:41 -20.72241 -63.04317 40021 ft 443 kts 355°
2026-04-21 15:42 -20.66080 -63.04524 40020 ft 443 kts 355°
2026-04-21 15:42 -20.59919 -63.04732 40021 ft 443 kts 355°
2026-04-21 15:43 -20.53803 -63.04938 40021 ft 443 kts 355°
2026-04-21 15:43 -20.47633 -63.05146 40019 ft 444 kts 356°
2026-04-21 15:44 -20.41462 -63.05361 40021 ft 444 kts 356°
2026-04-21 15:44 -20.36317 -63.05541 40026 ft 445 kts 356°
2026-04-21 15:45 -20.30136 -63.05757 40019 ft 444 kts 356°
2026-04-21 15:45 -20.23946 -63.05974 40020 ft 444 kts 356°
2026-04-21 15:46 -20.17765 -63.06190 40021 ft 445 kts 356°
2026-04-21 15:46 -20.11573 -63.06406 40020 ft 445 kts 356°
2026-04-21 15:47 -20.05376 -63.06622 40021 ft 445 kts 356°
2026-04-21 15:47 -19.99181 -63.06838 39899 ft 443 kts 356°
2026-04-21 15:48 -19.96422 -63.06933 39677 ft 436 kts 356°
2026-04-21 15:48 -19.93407 -63.07038 39439 ft 432 kts 356°
2026-04-21 15:48 -19.90397 -63.07143 39206 ft 431 kts 356°
2026-04-21 15:48 -19.87396 -63.07248 38978 ft 433 kts 356°
2026-04-21 15:49 -19.84420 -63.07352 38763 ft 434 kts 356°
2026-04-21 15:49 -19.81362 -63.07458 38500 ft 435 kts 356°
2026-04-21 15:49 -19.78378 -63.07562 38234 ft 436 kts 356°
2026-04-21 15:49 -19.75344 -63.07668 37973 ft 436 kts 356°
2026-04-21 15:50 -19.72307 -63.07773 37715 ft 438 kts 356°
2026-04-21 15:50 -19.69279 -63.07878 37465 ft 432 kts 356°
2026-04-21 15:50 -19.66285 -63.07981 37099 ft 428 kts 356°
2026-04-21 15:50 -19.63313 -63.08084 36677 ft 427 kts 356°
2026-04-21 15:51 -19.60356 -63.08187 36274 ft 424 kts 356°
2026-04-21 15:51 -19.57413 -63.08289 35859 ft 422 kts 356°
2026-04-21 15:51 -19.54482 -63.08391 35427 ft 420 kts 356°
2026-04-21 15:51 -19.51556 -63.08492 34938 ft 420 kts 356°
2026-04-21 15:52 -19.48630 -63.08594 34415 ft 422 kts 356°
2026-04-21 15:52 -19.45676 -63.08697 33742 ft 426 kts 356°
2026-04-21 15:52 -19.42703 -63.08800 33026 ft 429 kts 356°
2026-04-21 15:52 -19.39710 -63.08904 32348 ft 432 kts 356°
2026-04-21 15:53 -19.36694 -63.09008 31632 ft 435 kts 356°
2026-04-21 15:53 -19.33659 -63.09113 31035 ft 437 kts 356°
2026-04-21 15:53 -19.30623 -63.09218 30565 ft 437 kts 356°
2026-04-21 15:53 -19.27589 -63.09322 30042 ft 436 kts 356°
2026-04-21 15:54 -19.24558 -63.09427 29436 ft 435 kts 356°
2026-04-21 15:54 -19.21584 -63.09529 28908 ft 432 kts 356°
2026-04-21 15:54 -19.18594 -63.09632 28378 ft 429 kts 356°
2026-04-21 15:54 -19.15623 -63.09734 27865 ft 425 kts 356°
2026-04-21 15:55 -19.12679 -63.09836 27347 ft 422 kts 356°
2026-04-21 15:55 -19.09752 -63.09937 26813 ft 420 kts 356°
2026-04-21 15:55 -19.06842 -63.10037 26279 ft 418 kts 356°
2026-04-21 15:55 -19.03947 -63.10137 25755 ft 415 kts 356°
2026-04-21 15:56 -19.01064 -63.10236 25237 ft 413 kts 357°
2026-04-21 15:56 -18.98196 -63.10335 24722 ft 411 kts 357°
2026-04-21 15:56 -18.95336 -63.10384 24185 ft 410 kts 359°
2026-04-21 15:56 -18.92478 -63.10370 23593 ft 411 kts 359°
2026-04-21 15:57 -18.89622 -63.10345 22966 ft 410 kts 359°
2026-04-21 15:57 -18.86783 -63.10319 22439 ft 406 kts 359°
2026-04-21 15:57 -18.83977 -63.10296 21930 ft 401 kts 359°
2026-04-21 15:57 -18.81197 -63.10273 21428 ft 398 kts 359°
2026-04-21 15:58 -18.78441 -63.10251 20919 ft 394 kts 359°
2026-04-21 15:58 -18.75706 -63.10230 20425 ft 391 kts 359°
2026-04-21 15:58 -18.72996 -63.10210 19922 ft 389 kts 360°
2026-04-21 15:58 -18.70298 -63.10189 19419 ft 386 kts 359°
2026-04-21 15:59 -18.67619 -63.10169 18924 ft 384 kts 360°
2026-04-21 15:59 -18.64953 -63.10148 18429 ft 382 kts 359°
2026-04-21 15:59 -18.62302 -63.10128 17870 ft 380 kts 360°
2026-04-21 15:59 -18.59678 -63.10108 17361 ft 375 kts 359°
2026-04-21 16:00 -18.57081 -63.10088 16876 ft 371 kts 359°
2026-04-21 16:00 -18.54513 -63.10069 16390 ft 367 kts 360°
2026-04-21 16:00 -18.51965 -63.10049 15895 ft 364 kts 360°
2026-04-21 16:00 -18.49443 -63.10030 15401 ft 361 kts 359°
2026-04-21 16:01 -18.46946 -63.10011 14918 ft 357 kts 360°
2026-04-21 16:01 -18.44477 -63.09992 14445 ft 353 kts 360°
2026-04-21 16:01 -18.42032 -63.09974 13975 ft 350 kts 360°
2026-04-21 16:01 -18.39607 -63.09956 13471 ft 346 kts 359°
2026-04-21 16:02 -18.37221 -63.09938 12988 ft 340 kts 359°
2026-04-21 16:02 -18.34901 -63.09920 12551 ft 336 kts 359°
2026-04-21 16:02 -18.32581 -63.09902 12104 ft 331 kts 360°
2026-04-21 16:02 -18.30282 -63.09885 11657 ft 329 kts 360°
2026-04-21 16:03 -18.27998 -63.09868 11203 ft 327 kts 359°
2026-04-21 16:03 -18.25729 -63.09851 10735 ft 325 kts 359°
2026-04-21 16:03 -18.23473 -63.09834 10321 ft 320 kts 360°
2026-04-21 16:03 -18.21306 -63.09817 10235 ft 303 kts 359°
2026-04-21 16:04 -18.19242 -63.09801 10144 ft 290 kts 359°
2026-04-21 16:04 -18.17256 -63.09785 10015 ft 281 kts 359°
2026-04-21 16:04 -18.15313 -63.09771 9711 ft 280 kts 359°
2026-04-21 16:04 -18.13358 -63.09757 9319 ft 282 kts 359°
2026-04-21 16:05 -18.11398 -63.09743 8998 ft 281 kts 359°
2026-04-21 16:05 -18.09452 -63.09729 8676 ft 279 kts 359°
2026-04-21 16:05 -18.07543 -63.09715 8335 ft 277 kts 359°
2026-04-21 16:05 -18.05626 -63.09701 8015 ft 274 kts 359°
2026-04-21 16:06 -18.03722 -63.09685 7685 ft 274 kts 360°
2026-04-21 16:06 -18.01810 -63.09674 7358 ft 274 kts 359°
2026-04-21 16:06 -17.99897 -63.09661 7023 ft 275 kts 359°
2026-04-21 16:06 -17.97990 -63.09644 6681 ft 273 kts 359°
2026-04-21 16:07 -17.96084 -63.09627 6334 ft 272 kts 359°
2026-04-21 16:07 -17.94201 -63.09613 5976 ft 270 kts 359°
2026-04-21 16:07 -17.92327 -63.09600 5634 ft 268 kts 359°
2026-04-21 16:07 -17.90465 -63.09586 5310 ft 268 kts 358°
2026-04-21 16:08 -17.87002 -63.08827 5093 ft 244 kts 29°
2026-04-21 16:08 -17.85663 -63.07855 4990 ft 226 kts 33°
2026-04-21 16:08 -17.84441 -63.06877 4727 ft 215 kts 34°
2026-04-21 16:09 -17.83300 -63.05951 4583 ft 200 kts 34°
2026-04-21 16:09 -17.82237 -63.05098 4557 ft 185 kts 34°
2026-04-21 16:09 -17.81183 -63.04425 4518 ft 168 kts 20°
2026-04-21 16:09 -17.80223 -63.04122 4443 ft 152 kts
2026-04-21 16:10 -17.79219 -63.04111 4520 ft 138 kts 349°
2026-04-21 16:10 -17.78329 -63.04396 4526 ft 131 kts 335°
2026-04-21 16:10 -17.77523 -63.04824 4485 ft 129 kts 331°
2026-04-21 16:10 -17.76750 -63.05291 4409 ft 129 kts 329°
2026-04-21 16:11 -17.75967 -63.05794 4208 ft 134 kts 327°
2026-04-21 16:11 -17.75182 -63.06330 3985 ft 136 kts 327°
2026-04-21 16:11 -17.74388 -63.06865 3694 ft 138 kts 327°
2026-04-21 16:11 -17.73579 -63.07400 3390 ft 137 kts 326°
2026-04-21 16:12 -17.73034 -63.07760 3160 ft 136 kts 326°
2026-04-21 16:12 -17.71972 -63.08472 2694 ft 137 kts 326°
2026-04-21 16:12 -17.71176 -63.09009 2453 ft 132 kts 325°
2026-04-21 16:12 -17.70433 -63.09508 2276 ft 122 kts 325°
2026-04-21 16:13 -17.69732 -63.09981 2120 ft 119 kts 325°
2026-04-21 16:13 -17.69036 -63.10453 1977 ft 119 kts 326°
2026-04-21 16:13 -17.68339 -63.10923 1840 ft 119 kts 326°
2026-04-21 16:13 -17.67647 -63.11393 1685 ft 119 kts 326°
2026-04-21 16:14 -17.66956 -63.11870 1516 ft 118 kts 327°
2026-04-21 16:14 -17.66267 -63.12338 1368 ft 117 kts 327°
2026-04-21 16:14 -17.65585 -63.12791 1255 ft 112 kts 328°
2026-04-21 16:14 -17.65076 -63.13135 1249 ft 59 kts 327°
2026-04-21 16:15 -17.64764 -63.13343 1238 ft 49 kts 327°
2026-04-21 16:15 -17.64495 -63.13523 1244 ft 44 kts 327°
2026-04-21 16:15 -17.64244 -63.13694 1250 ft 42 kts 327°
2026-04-21 16:15 -17.63998 -63.13859 1232 ft 41 kts 328°
2026-04-21 16:16 -17.63905 -63.13985 1232 ft 13 kts 245°
2026-04-21 16:16 -17.63921 -63.14014 1233 ft 0 kts 237°
2026-04-21 16:17 -17.63928 -63.14025 1233 ft 5 kts 237°
2026-04-21 16:17 -17.63950 -63.14061 1241 ft 8 kts 235°
2026-04-21 16:17 -17.63989 -63.14083 1249 ft 6 kts 189°
2026-04-21 16:18 -17.64042 -63.14062 1251 ft 11 kts 147°
2026-04-21 16:18 -17.64140 -63.13994 1236 ft 22 kts 147°
2026-04-21 16:18 -17.64300 -63.13891 1243 ft 31 kts 149°
2026-04-21 16:18 -17.64389 -63.13862 1246 ft 8 kts 201°
2026-04-21 16:19 -17.64439 -63.13926 1246 ft 22 kts 237°
2026-04-21 16:19 -17.64534 -63.14021 1250 ft 11 kts 183°
2026-04-21 16:19 -17.64581 -63.13996 1241 ft 9 kts 148°
2026-04-21 16:19 -17.64641 -63.13957 1248 ft 12 kts 147°
2026-04-21 16:20 -17.64695 -63.13919 1249 ft 7 kts 146°
2026-04-21 16:20 -17.64744 -63.13885 1241 ft 10 kts 146°
2026-04-21 16:20 -17.64809 -63.13843 1242 ft 8 kts 163°
2026-04-21 16:20 -17.64834 -63.13853 1248 ft 2 kts 218°
2026-04-21 16:21 -17.64856 -63.13891 1252 ft 4 kts 239°
2026-04-21 16:21 -17.64862 -63.13902 1249 ft 3 kts 239°
2026-04-21 16:21 -17.64867 -63.13910 1246 ft 2 kts 238°
2026-04-21 16:21 -17.64867 -63.13911 1246 ft 0 kts 238°
2026-04-21 16:22 -17.64867 -63.13910 1246 ft 0 kts 238°